<?xml version="1.0" encoding="UTF-8"?>
<gpx
version="1.1"
creator="Kashmir3D 9.390 - http://www.kashmir3d.com"
xmlns:xsi="http://www.w3.org/2001/XMLSchema-instance"
xmlns="http://www.topografix.com/GPX/1/1"
xmlns:kashmir3d="http://www.kashmir3d.com/namespace/kashmir3d"
xsi:schemaLocation="http://www.topografix.com/GPX/1/1 http://www.topografix.com/GPX/1/1/gpx.xsd
	http://www.kashmir3d.com/namespace/kashmir3d http://www.kashmir3d.com/namespace/kashmir3d.xsd">
<trk>
 <name>TSURUMIDAKE.KML(鶴見岳)</name>
 <number>1</number>
 <extensions>
 <kashmir3d:line_color>0000ff</kashmir3d:line_color>
 <kashmir3d:line_size>3</kashmir3d:line_size>
 <kashmir3d:line_style>1</kashmir3d:line_style>
 <kashmir3d:icon>901001</kashmir3d:icon>
 </extensions>
<trkseg>
<trkpt lat="33.272733" lon="131.439066">
 <ele>705</ele>
 <time>2024-03-02T05:41:16Z</time>
</trkpt>
<trkpt lat="33.273094" lon="131.438787">
 <ele>706.6</ele>
 <time>2024-03-02T05:41:16Z</time>
</trkpt>
<trkpt lat="33.273257" lon="131.438711">
 <ele>706.8</ele>
 <time>2024-03-02T05:41:16Z</time>
</trkpt>
<trkpt lat="33.273532" lon="131.438733">
 <ele>705.9</ele>
 <time>2024-03-02T05:41:16Z</time>
</trkpt>
<trkpt lat="33.273806" lon="131.438744">
 <ele>701.3</ele>
 <time>2024-03-02T05:41:16Z</time>
</trkpt>
<trkpt lat="33.274021" lon="131.438722">
 <ele>696.9</ele>
 <time>2024-03-02T05:41:16Z</time>
</trkpt>
<trkpt lat="33.274132" lon="131.438722">
 <ele>699.2</ele>
 <time>2024-03-02T05:41:16Z</time>
</trkpt>
<trkpt lat="33.274235" lon="131.438508">
 <ele>701.7</ele>
 <time>2024-03-02T05:41:16Z</time>
</trkpt>
<trkpt lat="33.274253" lon="131.438197">
 <ele>716.1</ele>
 <time>2024-03-02T05:41:16Z</time>
</trkpt>
<trkpt lat="33.274210" lon="131.437950">
 <ele>721.9</ele>
 <time>2024-03-02T05:41:16Z</time>
</trkpt>
<trkpt lat="33.274175" lon="131.437800">
 <ele>728.4</ele>
 <time>2024-03-02T05:41:16Z</time>
</trkpt>
<trkpt lat="33.274201" lon="131.437628">
 <ele>733</ele>
 <time>2024-03-02T05:41:16Z</time>
</trkpt>
<trkpt lat="33.274253" lon="131.437467">
 <ele>738.3</ele>
 <time>2024-03-02T05:41:16Z</time>
</trkpt>
<trkpt lat="33.274330" lon="131.437338">
 <ele>743.3</ele>
 <time>2024-03-02T05:41:16Z</time>
</trkpt>
<trkpt lat="33.274373" lon="131.437188">
 <ele>747.8</ele>
 <time>2024-03-02T05:41:16Z</time>
</trkpt>
<trkpt lat="33.274416" lon="131.437006">
 <ele>749.6</ele>
 <time>2024-03-02T05:41:16Z</time>
</trkpt>
<trkpt lat="33.274295" lon="131.436855">
 <ele>755.9</ele>
 <time>2024-03-02T05:41:16Z</time>
</trkpt>
<trkpt lat="33.274184" lon="131.436727">
 <ele>762.4</ele>
 <time>2024-03-02T05:41:17Z</time>
</trkpt>
<trkpt lat="33.274072" lon="131.436609">
 <ele>768.5</ele>
 <time>2024-03-02T05:41:17Z</time>
</trkpt>
<trkpt lat="33.274107" lon="131.436469">
 <ele>773.5</ele>
 <time>2024-03-02T05:41:17Z</time>
</trkpt>
<trkpt lat="33.274201" lon="131.436394">
 <ele>781.4</ele>
 <time>2024-03-02T05:41:17Z</time>
</trkpt>
<trkpt lat="33.274330" lon="131.436394">
 <ele>786.4</ele>
 <time>2024-03-02T05:41:17Z</time>
</trkpt>
<trkpt lat="33.274484" lon="131.436394">
 <ele>790.6</ele>
 <time>2024-03-02T05:41:17Z</time>
</trkpt>
<trkpt lat="33.274639" lon="131.436394">
 <ele>794.3</ele>
 <time>2024-03-02T05:41:17Z</time>
</trkpt>
<trkpt lat="33.274793" lon="131.436426">
 <ele>794</ele>
 <time>2024-03-02T05:41:17Z</time>
</trkpt>
<trkpt lat="33.274913" lon="131.436394">
 <ele>797.6</ele>
 <time>2024-03-02T05:41:17Z</time>
</trkpt>
<trkpt lat="33.275008" lon="131.436330">
 <ele>800.4</ele>
 <time>2024-03-02T05:41:17Z</time>
</trkpt>
<trkpt lat="33.275025" lon="131.436233">
 <ele>805.3</ele>
 <time>2024-03-02T05:41:17Z</time>
</trkpt>
<trkpt lat="33.274956" lon="131.436222">
 <ele>811.1</ele>
 <time>2024-03-02T05:41:17Z</time>
</trkpt>
<trkpt lat="33.274871" lon="131.436137">
 <ele>817.9</ele>
 <time>2024-03-02T05:41:17Z</time>
</trkpt>
<trkpt lat="33.274871" lon="131.435965">
 <ele>828.1</ele>
 <time>2024-03-02T05:41:17Z</time>
</trkpt>
<trkpt lat="33.274871" lon="131.435815">
 <ele>832.7</ele>
 <time>2024-03-02T05:41:17Z</time>
</trkpt>
<trkpt lat="33.274913" lon="131.435611">
 <ele>838</ele>
 <time>2024-03-02T05:41:17Z</time>
</trkpt>
<trkpt lat="33.274965" lon="131.435493">
 <ele>839.8</ele>
 <time>2024-03-02T05:41:17Z</time>
</trkpt>
<trkpt lat="33.274991" lon="131.435364">
 <ele>841.7</ele>
 <time>2024-03-02T05:41:17Z</time>
</trkpt>
<trkpt lat="33.275034" lon="131.435214">
 <ele>844.9</ele>
 <time>2024-03-02T05:41:17Z</time>
</trkpt>
<trkpt lat="33.275111" lon="131.435107">
 <ele>849.6</ele>
 <time>2024-03-02T05:41:17Z</time>
</trkpt>
<trkpt lat="33.275222" lon="131.434978">
 <ele>852.2</ele>
 <time>2024-03-02T05:41:17Z</time>
</trkpt>
<trkpt lat="33.275360" lon="131.434849">
 <ele>855.1</ele>
 <time>2024-03-02T05:41:18Z</time>
</trkpt>
<trkpt lat="33.275489" lon="131.434710">
 <ele>858.9</ele>
 <time>2024-03-02T05:41:18Z</time>
</trkpt>
<trkpt lat="33.275609" lon="131.434592">
 <ele>861.3</ele>
 <time>2024-03-02T05:41:18Z</time>
</trkpt>
<trkpt lat="33.275763" lon="131.434474">
 <ele>864.9</ele>
 <time>2024-03-02T05:41:18Z</time>
</trkpt>
<trkpt lat="33.275892" lon="131.434409">
 <ele>867.6</ele>
 <time>2024-03-02T05:41:18Z</time>
</trkpt>
<trkpt lat="33.275995" lon="131.434334">
 <ele>870</ele>
 <time>2024-03-02T05:41:18Z</time>
</trkpt>
<trkpt lat="33.276124" lon="131.434227">
 <ele>871.5</ele>
 <time>2024-03-02T05:41:18Z</time>
</trkpt>
<trkpt lat="33.276227" lon="131.434130">
 <ele>875.2</ele>
 <time>2024-03-02T05:41:18Z</time>
</trkpt>
<trkpt lat="33.276390" lon="131.434002">
 <ele>883</ele>
 <time>2024-03-02T05:41:18Z</time>
</trkpt>
<trkpt lat="33.276493" lon="131.433894">
 <ele>887.4</ele>
 <time>2024-03-02T05:41:18Z</time>
</trkpt>
<trkpt lat="33.276596" lon="131.433766">
 <ele>891.7</ele>
 <time>2024-03-02T05:41:18Z</time>
</trkpt>
<trkpt lat="33.276699" lon="131.433626">
 <ele>893.6</ele>
 <time>2024-03-02T05:41:18Z</time>
</trkpt>
<trkpt lat="33.276793" lon="131.433487">
 <ele>894.7</ele>
 <time>2024-03-02T05:41:18Z</time>
</trkpt>
<trkpt lat="33.276862" lon="131.433379">
 <ele>896.3</ele>
 <time>2024-03-02T05:41:18Z</time>
</trkpt>
<trkpt lat="33.276888" lon="131.433229">
 <ele>899.8</ele>
 <time>2024-03-02T05:41:18Z</time>
</trkpt>
<trkpt lat="33.277025" lon="131.433175">
 <ele>905.1</ele>
 <time>2024-03-02T05:41:18Z</time>
</trkpt>
<trkpt lat="33.277076" lon="131.433100">
 <ele>906.7</ele>
 <time>2024-03-02T05:41:18Z</time>
</trkpt>
<trkpt lat="33.277171" lon="131.432993">
 <ele>910.7</ele>
 <time>2024-03-02T05:41:18Z</time>
</trkpt>
<trkpt lat="33.277282" lon="131.432886">
 <ele>914</ele>
 <time>2024-03-02T05:41:19Z</time>
</trkpt>
<trkpt lat="33.277394" lon="131.432789">
 <ele>917.1</ele>
 <time>2024-03-02T05:41:19Z</time>
</trkpt>
<trkpt lat="33.277514" lon="131.432693">
 <ele>918.9</ele>
 <time>2024-03-02T05:41:19Z</time>
</trkpt>
<trkpt lat="33.277643" lon="131.432607">
 <ele>921.1</ele>
 <time>2024-03-02T05:41:19Z</time>
</trkpt>
<trkpt lat="33.277737" lon="131.432500">
 <ele>922.2</ele>
 <time>2024-03-02T05:41:19Z</time>
</trkpt>
<trkpt lat="33.277815" lon="131.432414">
 <ele>924.9</ele>
 <time>2024-03-02T05:41:19Z</time>
</trkpt>
<trkpt lat="33.277900" lon="131.432339">
 <ele>927.2</ele>
 <time>2024-03-02T05:41:19Z</time>
</trkpt>
<trkpt lat="33.277978" lon="131.432263">
 <ele>929.2</ele>
 <time>2024-03-02T05:41:19Z</time>
</trkpt>
<trkpt lat="33.278081" lon="131.432135">
 <ele>932.6</ele>
 <time>2024-03-02T05:41:19Z</time>
</trkpt>
<trkpt lat="33.278132" lon="131.432070">
 <ele>934.3</ele>
 <time>2024-03-02T05:41:19Z</time>
</trkpt>
<trkpt lat="33.278252" lon="131.431952">
 <ele>937.8</ele>
 <time>2024-03-02T05:41:19Z</time>
</trkpt>
<trkpt lat="33.278381" lon="131.431888">
 <ele>942</ele>
 <time>2024-03-02T05:41:19Z</time>
</trkpt>
<trkpt lat="33.278501" lon="131.431813">
 <ele>943.4</ele>
 <time>2024-03-02T05:41:19Z</time>
</trkpt>
<trkpt lat="33.278819" lon="131.431663">
 <ele>951.2</ele>
 <time>2024-03-02T05:41:19Z</time>
</trkpt>
<trkpt lat="33.278999" lon="131.431577">
 <ele>953.7</ele>
 <time>2024-03-02T05:41:19Z</time>
</trkpt>
<trkpt lat="33.279136" lon="131.431534">
 <ele>958.7</ele>
 <time>2024-03-02T05:41:19Z</time>
</trkpt>
<trkpt lat="33.279265" lon="131.431470">
 <ele>960.5</ele>
 <time>2024-03-02T05:41:19Z</time>
</trkpt>
<trkpt lat="33.279394" lon="131.431405">
 <ele>965</ele>
 <time>2024-03-02T05:41:19Z</time>
</trkpt>
<trkpt lat="33.279497" lon="131.431341">
 <ele>968.4</ele>
 <time>2024-03-02T05:41:19Z</time>
</trkpt>
<trkpt lat="33.279600" lon="131.431276">
 <ele>971.7</ele>
 <time>2024-03-02T05:41:19Z</time>
</trkpt>
<trkpt lat="33.279711" lon="131.431255">
 <ele>974</ele>
 <time>2024-03-02T05:41:19Z</time>
</trkpt>
<trkpt lat="33.279797" lon="131.431352">
 <ele>977.7</ele>
 <time>2024-03-02T05:41:19Z</time>
</trkpt>
<trkpt lat="33.279909" lon="131.431309">
 <ele>980.4</ele>
 <time>2024-03-02T05:41:20Z</time>
</trkpt>
<trkpt lat="33.279995" lon="131.431223">
 <ele>984.6</ele>
 <time>2024-03-02T05:41:20Z</time>
</trkpt>
<trkpt lat="33.280072" lon="131.431115">
 <ele>990.9</ele>
 <time>2024-03-02T05:41:20Z</time>
</trkpt>
<trkpt lat="33.280175" lon="131.431019">
 <ele>994.4</ele>
 <time>2024-03-02T05:41:20Z</time>
</trkpt>
<trkpt lat="33.280244" lon="131.430965">
 <ele>996.6</ele>
 <time>2024-03-02T05:41:20Z</time>
</trkpt>
<trkpt lat="33.280347" lon="131.430933">
 <ele>997.8</ele>
 <time>2024-03-02T05:41:20Z</time>
</trkpt>
<trkpt lat="33.280441" lon="131.430933">
 <ele>1000.2</ele>
 <time>2024-03-02T05:41:20Z</time>
</trkpt>
<trkpt lat="33.280553" lon="131.430858">
 <ele>1005.8</ele>
 <time>2024-03-02T05:41:20Z</time>
</trkpt>
<trkpt lat="33.280681" lon="131.430858">
 <ele>1014.2</ele>
 <time>2024-03-02T05:41:20Z</time>
</trkpt>
<trkpt lat="33.280810" lon="131.430933">
 <ele>1019.5</ele>
 <time>2024-03-02T05:41:20Z</time>
</trkpt>
<trkpt lat="33.280904" lon="131.431008">
 <ele>1023.6</ele>
 <time>2024-03-02T05:41:20Z</time>
</trkpt>
<trkpt lat="33.280965" lon="131.430955">
 <ele>1028.2</ele>
 <time>2024-03-02T05:41:20Z</time>
</trkpt>
<trkpt lat="33.281025" lon="131.430858">
 <ele>1033.4</ele>
 <time>2024-03-02T05:41:20Z</time>
</trkpt>
<trkpt lat="33.281179" lon="131.430922">
 <ele>1042.8</ele>
 <time>2024-03-02T05:41:20Z</time>
</trkpt>
<trkpt lat="33.281291" lon="131.430933">
 <ele>1050.5</ele>
 <time>2024-03-02T05:41:20Z</time>
</trkpt>
<trkpt lat="33.281368" lon="131.430933">
 <ele>1054.6</ele>
 <time>2024-03-02T05:41:20Z</time>
</trkpt>
<trkpt lat="33.281419" lon="131.430869">
 <ele>1057.9</ele>
 <time>2024-03-02T05:41:20Z</time>
</trkpt>
<trkpt lat="33.281445" lon="131.430804">
 <ele>1062.1</ele>
 <time>2024-03-02T05:41:20Z</time>
</trkpt>
<trkpt lat="33.281514" lon="131.430826">
 <ele>1065.4</ele>
 <time>2024-03-02T05:41:20Z</time>
</trkpt>
<trkpt lat="33.281591" lon="131.430869">
 <ele>1068.8</ele>
 <time>2024-03-02T05:41:20Z</time>
</trkpt>
<trkpt lat="33.281634" lon="131.430922">
 <ele>1070.2</ele>
 <time>2024-03-02T05:41:21Z</time>
</trkpt>
<trkpt lat="33.281686" lon="131.430901">
 <ele>1076</ele>
 <time>2024-03-02T05:41:21Z</time>
</trkpt>
<trkpt lat="33.281728" lon="131.430815">
 <ele>1079.7</ele>
 <time>2024-03-02T05:41:21Z</time>
</trkpt>
<trkpt lat="33.281797" lon="131.430815">
 <ele>1083.9</ele>
 <time>2024-03-02T05:41:21Z</time>
</trkpt>
<trkpt lat="33.281866" lon="131.430879">
 <ele>1088.2</ele>
 <time>2024-03-02T05:41:21Z</time>
</trkpt>
<trkpt lat="33.281909" lon="131.430879">
 <ele>1090.6</ele>
 <time>2024-03-02T05:41:21Z</time>
</trkpt>
<trkpt lat="33.281969" lon="131.430804">
 <ele>1096.3</ele>
 <time>2024-03-02T05:41:21Z</time>
</trkpt>
<trkpt lat="33.282012" lon="131.430761">
 <ele>1098.7</ele>
 <time>2024-03-02T05:41:21Z</time>
</trkpt>
<trkpt lat="33.282072" lon="131.430826">
 <ele>1101</ele>
 <time>2024-03-02T05:41:21Z</time>
</trkpt>
<trkpt lat="33.282166" lon="131.430879">
 <ele>1106.8</ele>
 <time>2024-03-02T05:41:21Z</time>
</trkpt>
<trkpt lat="33.282192" lon="131.430783">
 <ele>1109.2</ele>
 <time>2024-03-02T05:41:21Z</time>
</trkpt>
<trkpt lat="33.282218" lon="131.430719">
 <ele>1111.8</ele>
 <time>2024-03-02T05:41:21Z</time>
</trkpt>
<trkpt lat="33.282312" lon="131.430643">
 <ele>1115.5</ele>
 <time>2024-03-02T05:41:21Z</time>
</trkpt>
<trkpt lat="33.282389" lon="131.430568">
 <ele>1120.2</ele>
 <time>2024-03-02T05:41:21Z</time>
</trkpt>
<trkpt lat="33.282458" lon="131.430600">
 <ele>1124.1</ele>
 <time>2024-03-02T05:41:21Z</time>
</trkpt>
<trkpt lat="33.282518" lon="131.430600">
 <ele>1127.8</ele>
 <time>2024-03-02T05:41:21Z</time>
</trkpt>
<trkpt lat="33.282587" lon="131.430568">
 <ele>1131.2</ele>
 <time>2024-03-02T05:41:21Z</time>
</trkpt>
<trkpt lat="33.282647" lon="131.430472">
 <ele>1137.1</ele>
 <time>2024-03-02T05:41:21Z</time>
</trkpt>
<trkpt lat="33.282664" lon="131.430364">
 <ele>1139.5</ele>
 <time>2024-03-02T05:41:21Z</time>
</trkpt>
<trkpt lat="33.282733" lon="131.430268">
 <ele>1145.4</ele>
 <time>2024-03-02T05:41:21Z</time>
</trkpt>
<trkpt lat="33.282870" lon="131.430236">
 <ele>1153.1</ele>
 <time>2024-03-02T05:41:21Z</time>
</trkpt>
<trkpt lat="33.283016" lon="131.430257">
 <ele>1161.9</ele>
 <time>2024-03-02T05:41:21Z</time>
</trkpt>
<trkpt lat="33.283102" lon="131.430289">
 <ele>1164.4</ele>
 <time>2024-03-02T05:41:22Z</time>
</trkpt>
<trkpt lat="33.283205" lon="131.430300">
 <ele>1167.3</ele>
 <time>2024-03-02T05:41:22Z</time>
</trkpt>
<trkpt lat="33.283282" lon="131.430397">
 <ele>1169.6</ele>
 <time>2024-03-02T05:41:22Z</time>
</trkpt>
<trkpt lat="33.283273" lon="131.430461">
 <ele>1169</ele>
 <time>2024-03-02T05:41:22Z</time>
</trkpt>
<trkpt lat="33.283316" lon="131.430558">
 <ele>1171.7</ele>
 <time>2024-03-02T05:41:22Z</time>
</trkpt>
<trkpt lat="33.283333" lon="131.430686">
 <ele>1176.4</ele>
 <time>2024-03-02T05:41:22Z</time>
</trkpt>
<trkpt lat="33.283359" lon="131.430804">
 <ele>1181</ele>
 <time>2024-03-02T05:41:22Z</time>
</trkpt>
<trkpt lat="33.283411" lon="131.430858">
 <ele>1189.3</ele>
 <time>2024-03-02T05:41:22Z</time>
</trkpt>
<trkpt lat="33.283497" lon="131.430772">
 <ele>1191.8</ele>
 <time>2024-03-02T05:41:22Z</time>
</trkpt>
<trkpt lat="33.283539" lon="131.430761">
 <ele>1194.8</ele>
 <time>2024-03-02T05:41:22Z</time>
</trkpt>
<trkpt lat="33.283539" lon="131.430837">
 <ele>1198.4</ele>
 <time>2024-03-02T05:41:22Z</time>
</trkpt>
<trkpt lat="33.283522" lon="131.430965">
 <ele>1199.7</ele>
 <time>2024-03-02T05:41:22Z</time>
</trkpt>
<trkpt lat="33.283531" lon="131.431083">
 <ele>1200.1</ele>
 <time>2024-03-02T05:41:22Z</time>
</trkpt>
<trkpt lat="33.283565" lon="131.431137">
 <ele>1201.3</ele>
 <time>2024-03-02T05:41:22Z</time>
</trkpt>
<trkpt lat="33.283634" lon="131.431137">
 <ele>1205.9</ele>
 <time>2024-03-02T05:41:22Z</time>
</trkpt>
<trkpt lat="33.283711" lon="131.431030">
 <ele>1212.6</ele>
 <time>2024-03-02T05:41:22Z</time>
</trkpt>
<trkpt lat="33.283780" lon="131.430901">
 <ele>1216.5</ele>
 <time>2024-03-02T05:41:22Z</time>
</trkpt>
<trkpt lat="33.283857" lon="131.430804">
 <ele>1220.9</ele>
 <time>2024-03-02T05:41:22Z</time>
</trkpt>
<trkpt lat="33.283926" lon="131.430697">
 <ele>1226.5</ele>
 <time>2024-03-02T05:41:22Z</time>
</trkpt>
<trkpt lat="33.284012" lon="131.430643">
 <ele>1232.9</ele>
 <time>2024-03-02T05:41:22Z</time>
</trkpt>
<trkpt lat="33.284063" lon="131.430761">
 <ele>1237.9</ele>
 <time>2024-03-02T05:41:22Z</time>
</trkpt>
<trkpt lat="33.284106" lon="131.430847">
 <ele>1242.2</ele>
 <time>2024-03-02T05:41:22Z</time>
</trkpt>
<trkpt lat="33.284166" lon="131.430890">
 <ele>1248.1</ele>
 <time>2024-03-02T05:41:22Z</time>
</trkpt>
<trkpt lat="33.284269" lon="131.430794">
 <ele>1255.6</ele>
 <time>2024-03-02T05:41:23Z</time>
</trkpt>
<trkpt lat="33.284381" lon="131.430761">
 <ele>1263.4</ele>
 <time>2024-03-02T05:41:23Z</time>
</trkpt>
<trkpt lat="33.284466" lon="131.430847">
 <ele>1270.8</ele>
 <time>2024-03-02T05:41:23Z</time>
</trkpt>
<trkpt lat="33.284604" lon="131.431094">
 <ele>1278.3</ele>
 <time>2024-03-02T05:41:23Z</time>
</trkpt>
<trkpt lat="33.284698" lon="131.431212">
 <ele>1285</ele>
 <time>2024-03-02T05:41:23Z</time>
</trkpt>
<trkpt lat="33.284793" lon="131.431298">
 <ele>1293.3</ele>
 <time>2024-03-02T05:41:23Z</time>
</trkpt>
<trkpt lat="33.284878" lon="131.431394">
 <ele>1297.4</ele>
 <time>2024-03-02T05:41:23Z</time>
</trkpt>
<trkpt lat="33.284938" lon="131.431502">
 <ele>1298.3</ele>
 <time>2024-03-02T05:41:23Z</time>
</trkpt>
<trkpt lat="33.285016" lon="131.431620">
 <ele>1303.9</ele>
 <time>2024-03-02T05:41:23Z</time>
</trkpt>
<trkpt lat="33.285041" lon="131.431727">
 <ele>1306.5</ele>
 <time>2024-03-02T05:41:23Z</time>
</trkpt>
<trkpt lat="33.285110" lon="131.431813">
 <ele>1309.7</ele>
 <time>2024-03-02T05:41:23Z</time>
</trkpt>
<trkpt lat="33.285213" lon="131.431834">
 <ele>1314.2</ele>
 <time>2024-03-02T05:41:23Z</time>
</trkpt>
<trkpt lat="33.285376" lon="131.431845">
 <ele>1320.1</ele>
 <time>2024-03-02T05:41:23Z</time>
</trkpt>
<trkpt lat="33.285488" lon="131.431845">
 <ele>1324.5</ele>
 <time>2024-03-02T05:41:23Z</time>
</trkpt>
<trkpt lat="33.285548" lon="131.431845">
 <ele>1325.2</ele>
 <time>2024-03-02T05:41:23Z</time>
</trkpt>
<trkpt lat="33.285591" lon="131.431802">
 <ele>1327.1</ele>
 <time>2024-03-02T05:41:23Z</time>
</trkpt>
<trkpt lat="33.285617" lon="131.431716">
 <ele>1327.3</ele>
 <time>2024-03-02T05:41:23Z</time>
</trkpt>
<trkpt lat="33.285642" lon="131.431663">
 <ele>1327.9</ele>
 <time>2024-03-02T05:41:23Z</time>
</trkpt>
<trkpt lat="33.285754" lon="131.431598">
 <ele>1329.8</ele>
 <time>2024-03-02T05:41:23Z</time>
</trkpt>
<trkpt lat="33.285848" lon="131.431598">
 <ele>1331.4</ele>
 <time>2024-03-02T05:41:23Z</time>
</trkpt>
<trkpt lat="33.285943" lon="131.431673">
 <ele>1332.6</ele>
 <time>2024-03-02T05:41:24Z</time>
</trkpt>
<trkpt lat="33.286089" lon="131.431534">
 <ele>1336.6</ele>
 <time>2024-03-02T05:41:24Z</time>
</trkpt>
<trkpt lat="33.286157" lon="131.431427">
 <ele>1339.7</ele>
 <time>2024-03-02T05:41:24Z</time>
</trkpt>
<trkpt lat="33.286252" lon="131.431266">
 <ele>1343.8</ele>
 <time>2024-03-02T05:41:24Z</time>
</trkpt>
<trkpt lat="33.286295" lon="131.431105">
 <ele>1346</ele>
 <time>2024-03-02T05:41:24Z</time>
</trkpt>
<trkpt lat="33.286320" lon="131.430955">
 <ele>1348.6</ele>
 <time>2024-03-02T05:41:24Z</time>
</trkpt>
<trkpt lat="33.286286" lon="131.430686">
 <ele>1352.2</ele>
 <time>2024-03-02T05:41:24Z</time>
</trkpt>
<trkpt lat="33.286226" lon="131.430536">
 <ele>1351.8</ele>
 <time>2024-03-02T05:41:24Z</time>
</trkpt>
<trkpt lat="33.286132" lon="131.430354">
 <ele>1355.1</ele>
 <time>2024-03-02T05:41:24Z</time>
</trkpt>
<trkpt lat="33.286183" lon="131.430204">
 <ele>1360.9</ele>
 <time>2024-03-02T05:41:24Z</time>
</trkpt>
<trkpt lat="33.286269" lon="131.430128">
 <ele>1364.6</ele>
 <time>2024-03-02T05:41:24Z</time>
</trkpt>
<trkpt lat="33.286380" lon="131.430043">
 <ele>1369</ele>
 <time>2024-03-02T05:41:24Z</time>
</trkpt>
<trkpt lat="33.286475" lon="131.429935">
 <ele>1371.1</ele>
 <time>2024-03-02T05:41:24Z</time>
</trkpt>
<trkpt lat="33.286603" lon="131.429736">
 <ele>1373.8</ele>
 <time>2024-03-02T05:41:24Z</time>
</trkpt>
<trkpt lat="33.286475" lon="131.429935">
 <ele>1371.1</ele>
 <time>2024-03-02T05:41:24Z</time>
</trkpt>
<trkpt lat="33.286380" lon="131.430043">
 <ele>1369</ele>
 <time>2024-03-02T05:41:24Z</time>
</trkpt>
<trkpt lat="33.286269" lon="131.430128">
 <ele>1364.6</ele>
 <time>2024-03-02T05:41:24Z</time>
</trkpt>
<trkpt lat="33.286183" lon="131.430204">
 <ele>1360.9</ele>
 <time>2024-03-02T05:41:24Z</time>
</trkpt>
<trkpt lat="33.286132" lon="131.430354">
 <ele>1355.1</ele>
 <time>2024-03-02T05:41:24Z</time>
</trkpt>
<trkpt lat="33.286226" lon="131.430536">
 <ele>1351.8</ele>
 <time>2024-03-02T05:41:24Z</time>
</trkpt>
<trkpt lat="33.286286" lon="131.430686">
 <ele>1352.2</ele>
 <time>2024-03-02T05:41:24Z</time>
</trkpt>
<trkpt lat="33.286320" lon="131.430955">
 <ele>1348.6</ele>
 <time>2024-03-02T05:41:25Z</time>
</trkpt>
<trkpt lat="33.286295" lon="131.431105">
 <ele>1346</ele>
 <time>2024-03-02T05:41:25Z</time>
</trkpt>
<trkpt lat="33.286252" lon="131.431266">
 <ele>1343.8</ele>
 <time>2024-03-02T05:41:25Z</time>
</trkpt>
<trkpt lat="33.286157" lon="131.431427">
 <ele>1339.7</ele>
 <time>2024-03-02T05:41:25Z</time>
</trkpt>
<trkpt lat="33.286089" lon="131.431534">
 <ele>1336.6</ele>
 <time>2024-03-02T05:41:25Z</time>
</trkpt>
<trkpt lat="33.285943" lon="131.431673">
 <ele>1332.6</ele>
 <time>2024-03-02T05:41:25Z</time>
</trkpt>
<trkpt lat="33.285848" lon="131.431598">
 <ele>1331.4</ele>
 <time>2024-03-02T05:41:25Z</time>
</trkpt>
<trkpt lat="33.285754" lon="131.431598">
 <ele>1329.8</ele>
 <time>2024-03-02T05:41:25Z</time>
</trkpt>
<trkpt lat="33.285642" lon="131.431663">
 <ele>1327.9</ele>
 <time>2024-03-02T05:41:25Z</time>
</trkpt>
<trkpt lat="33.285617" lon="131.431716">
 <ele>1327.3</ele>
 <time>2024-03-02T05:41:25Z</time>
</trkpt>
<trkpt lat="33.285591" lon="131.431802">
 <ele>1327.1</ele>
 <time>2024-03-02T05:41:25Z</time>
</trkpt>
<trkpt lat="33.285548" lon="131.431845">
 <ele>1325.2</ele>
 <time>2024-03-02T05:41:25Z</time>
</trkpt>
<trkpt lat="33.285488" lon="131.431845">
 <ele>1324.5</ele>
 <time>2024-03-02T05:41:25Z</time>
</trkpt>
<trkpt lat="33.285376" lon="131.431845">
 <ele>1320.1</ele>
 <time>2024-03-02T05:41:25Z</time>
</trkpt>
<trkpt lat="33.285213" lon="131.431834">
 <ele>1314.2</ele>
 <time>2024-03-02T05:41:25Z</time>
</trkpt>
<trkpt lat="33.285110" lon="131.431813">
 <ele>1309.7</ele>
 <time>2024-03-02T05:41:25Z</time>
</trkpt>
<trkpt lat="33.285041" lon="131.431727">
 <ele>1306.5</ele>
 <time>2024-03-02T05:41:25Z</time>
</trkpt>
<trkpt lat="33.285016" lon="131.431620">
 <ele>1303.9</ele>
 <time>2024-03-02T05:41:25Z</time>
</trkpt>
<trkpt lat="33.284938" lon="131.431502">
 <ele>1298.3</ele>
 <time>2024-03-02T05:41:25Z</time>
</trkpt>
<trkpt lat="33.284878" lon="131.431394">
 <ele>1297.4</ele>
 <time>2024-03-02T05:41:25Z</time>
</trkpt>
<trkpt lat="33.284793" lon="131.431298">
 <ele>1293.3</ele>
 <time>2024-03-02T05:41:25Z</time>
</trkpt>
<trkpt lat="33.284698" lon="131.431212">
 <ele>1285</ele>
 <time>2024-03-02T05:41:25Z</time>
</trkpt>
<trkpt lat="33.284604" lon="131.431094">
 <ele>1278.3</ele>
 <time>2024-03-02T05:41:25Z</time>
</trkpt>
<trkpt lat="33.284466" lon="131.430847">
 <ele>1270.8</ele>
 <time>2024-03-02T05:41:25Z</time>
</trkpt>
<trkpt lat="33.284381" lon="131.430761">
 <ele>1263.4</ele>
 <time>2024-03-02T05:41:25Z</time>
</trkpt>
<trkpt lat="33.284269" lon="131.430794">
 <ele>1255.6</ele>
 <time>2024-03-02T05:41:25Z</time>
</trkpt>
<trkpt lat="33.284166" lon="131.430890">
 <ele>1248.1</ele>
 <time>2024-03-02T05:41:25Z</time>
</trkpt>
<trkpt lat="33.284106" lon="131.430847">
 <ele>1242.2</ele>
 <time>2024-03-02T05:41:25Z</time>
</trkpt>
<trkpt lat="33.284063" lon="131.430761">
 <ele>1237.9</ele>
 <time>2024-03-02T05:41:26Z</time>
</trkpt>
<trkpt lat="33.284012" lon="131.430643">
 <ele>1232.9</ele>
 <time>2024-03-02T05:41:26Z</time>
</trkpt>
<trkpt lat="33.283926" lon="131.430697">
 <ele>1226.5</ele>
 <time>2024-03-02T05:41:26Z</time>
</trkpt>
<trkpt lat="33.283857" lon="131.430804">
 <ele>1220.9</ele>
 <time>2024-03-02T05:41:26Z</time>
</trkpt>
<trkpt lat="33.283780" lon="131.430901">
 <ele>1216.5</ele>
 <time>2024-03-02T05:41:26Z</time>
</trkpt>
<trkpt lat="33.283711" lon="131.431030">
 <ele>1212.6</ele>
 <time>2024-03-02T05:41:26Z</time>
</trkpt>
<trkpt lat="33.283634" lon="131.431137">
 <ele>1205.9</ele>
 <time>2024-03-02T05:41:26Z</time>
</trkpt>
<trkpt lat="33.283565" lon="131.431137">
 <ele>1201.3</ele>
 <time>2024-03-02T05:41:26Z</time>
</trkpt>
<trkpt lat="33.283531" lon="131.431083">
 <ele>1200.1</ele>
 <time>2024-03-02T05:41:26Z</time>
</trkpt>
<trkpt lat="33.283522" lon="131.430965">
 <ele>1199.7</ele>
 <time>2024-03-02T05:41:26Z</time>
</trkpt>
<trkpt lat="33.283539" lon="131.430837">
 <ele>1198.4</ele>
 <time>2024-03-02T05:41:26Z</time>
</trkpt>
<trkpt lat="33.283539" lon="131.430761">
 <ele>1194.8</ele>
 <time>2024-03-02T05:41:26Z</time>
</trkpt>
<trkpt lat="33.283497" lon="131.430772">
 <ele>1191.8</ele>
 <time>2024-03-02T05:41:26Z</time>
</trkpt>
<trkpt lat="33.283411" lon="131.430858">
 <ele>1189.3</ele>
 <time>2024-03-02T05:41:26Z</time>
</trkpt>
<trkpt lat="33.283359" lon="131.430804">
 <ele>1181</ele>
 <time>2024-03-02T05:41:26Z</time>
</trkpt>
<trkpt lat="33.283333" lon="131.430686">
 <ele>1176.4</ele>
 <time>2024-03-02T05:41:26Z</time>
</trkpt>
<trkpt lat="33.283316" lon="131.430558">
 <ele>1171.7</ele>
 <time>2024-03-02T05:41:26Z</time>
</trkpt>
<trkpt lat="33.283273" lon="131.430461">
 <ele>1169</ele>
 <time>2024-03-02T05:41:26Z</time>
</trkpt>
<trkpt lat="33.283282" lon="131.430397">
 <ele>1169.6</ele>
 <time>2024-03-02T05:41:26Z</time>
</trkpt>
<trkpt lat="33.283205" lon="131.430300">
 <ele>1167.3</ele>
 <time>2024-03-02T05:41:26Z</time>
</trkpt>
<trkpt lat="33.283102" lon="131.430289">
 <ele>1164.4</ele>
 <time>2024-03-02T05:41:26Z</time>
</trkpt>
<trkpt lat="33.283016" lon="131.430257">
 <ele>1161.9</ele>
 <time>2024-03-02T05:41:26Z</time>
</trkpt>
<trkpt lat="33.282870" lon="131.430236">
 <ele>1153.1</ele>
 <time>2024-03-02T05:41:26Z</time>
</trkpt>
<trkpt lat="33.282733" lon="131.430268">
 <ele>1145.4</ele>
 <time>2024-03-02T05:41:26Z</time>
</trkpt>
<trkpt lat="33.282664" lon="131.430364">
 <ele>1139.5</ele>
 <time>2024-03-02T05:41:26Z</time>
</trkpt>
<trkpt lat="33.282647" lon="131.430472">
 <ele>1137.1</ele>
 <time>2024-03-02T05:41:26Z</time>
</trkpt>
<trkpt lat="33.282587" lon="131.430568">
 <ele>1131.2</ele>
 <time>2024-03-02T05:41:26Z</time>
</trkpt>
<trkpt lat="33.282518" lon="131.430600">
 <ele>1127.8</ele>
 <time>2024-03-02T05:41:26Z</time>
</trkpt>
<trkpt lat="33.282458" lon="131.430600">
 <ele>1124.1</ele>
 <time>2024-03-02T05:41:26Z</time>
</trkpt>
<trkpt lat="33.282389" lon="131.430568">
 <ele>1120.2</ele>
 <time>2024-03-02T05:41:27Z</time>
</trkpt>
<trkpt lat="33.282312" lon="131.430643">
 <ele>1115.5</ele>
 <time>2024-03-02T05:41:27Z</time>
</trkpt>
<trkpt lat="33.282218" lon="131.430719">
 <ele>1111.8</ele>
 <time>2024-03-02T05:41:27Z</time>
</trkpt>
<trkpt lat="33.282192" lon="131.430783">
 <ele>1109.2</ele>
 <time>2024-03-02T05:41:27Z</time>
</trkpt>
<trkpt lat="33.282166" lon="131.430879">
 <ele>1106.8</ele>
 <time>2024-03-02T05:41:27Z</time>
</trkpt>
<trkpt lat="33.282072" lon="131.430826">
 <ele>1101</ele>
 <time>2024-03-02T05:41:27Z</time>
</trkpt>
<trkpt lat="33.282012" lon="131.430761">
 <ele>1098.7</ele>
 <time>2024-03-02T05:41:27Z</time>
</trkpt>
<trkpt lat="33.281969" lon="131.430804">
 <ele>1096.3</ele>
 <time>2024-03-02T05:41:27Z</time>
</trkpt>
<trkpt lat="33.281909" lon="131.430879">
 <ele>1090.6</ele>
 <time>2024-03-02T05:41:27Z</time>
</trkpt>
<trkpt lat="33.281866" lon="131.430879">
 <ele>1088.2</ele>
 <time>2024-03-02T05:41:27Z</time>
</trkpt>
<trkpt lat="33.281797" lon="131.430815">
 <ele>1083.9</ele>
 <time>2024-03-02T05:41:27Z</time>
</trkpt>
<trkpt lat="33.281728" lon="131.430815">
 <ele>1079.7</ele>
 <time>2024-03-02T05:41:27Z</time>
</trkpt>
<trkpt lat="33.281686" lon="131.430901">
 <ele>1076</ele>
 <time>2024-03-02T05:41:27Z</time>
</trkpt>
<trkpt lat="33.281634" lon="131.430922">
 <ele>1070.2</ele>
 <time>2024-03-02T05:41:27Z</time>
</trkpt>
<trkpt lat="33.281591" lon="131.430869">
 <ele>1068.8</ele>
 <time>2024-03-02T05:41:27Z</time>
</trkpt>
<trkpt lat="33.281514" lon="131.430826">
 <ele>1065.4</ele>
 <time>2024-03-02T05:41:27Z</time>
</trkpt>
<trkpt lat="33.281445" lon="131.430804">
 <ele>1062.1</ele>
 <time>2024-03-02T05:41:27Z</time>
</trkpt>
<trkpt lat="33.281419" lon="131.430869">
 <ele>1057.9</ele>
 <time>2024-03-02T05:41:27Z</time>
</trkpt>
<trkpt lat="33.281368" lon="131.430933">
 <ele>1054.6</ele>
 <time>2024-03-02T05:41:27Z</time>
</trkpt>
<trkpt lat="33.281291" lon="131.430933">
 <ele>1050.5</ele>
 <time>2024-03-02T05:41:27Z</time>
</trkpt>
<trkpt lat="33.281179" lon="131.430922">
 <ele>1042.8</ele>
 <time>2024-03-02T05:41:27Z</time>
</trkpt>
<trkpt lat="33.281025" lon="131.430858">
 <ele>1033.4</ele>
 <time>2024-03-02T05:41:27Z</time>
</trkpt>
<trkpt lat="33.280965" lon="131.430955">
 <ele>1028.2</ele>
 <time>2024-03-02T05:41:27Z</time>
</trkpt>
<trkpt lat="33.280904" lon="131.431008">
 <ele>1023.6</ele>
 <time>2024-03-02T05:41:27Z</time>
</trkpt>
<trkpt lat="33.280810" lon="131.430933">
 <ele>1019.5</ele>
 <time>2024-03-02T05:41:27Z</time>
</trkpt>
<trkpt lat="33.280681" lon="131.430858">
 <ele>1014.2</ele>
 <time>2024-03-02T05:41:27Z</time>
</trkpt>
<trkpt lat="33.280553" lon="131.430858">
 <ele>1005.8</ele>
 <time>2024-03-02T05:41:28Z</time>
</trkpt>
<trkpt lat="33.280441" lon="131.430933">
 <ele>1000.2</ele>
 <time>2024-03-02T05:41:28Z</time>
</trkpt>
<trkpt lat="33.280347" lon="131.430933">
 <ele>997.8</ele>
 <time>2024-03-02T05:41:28Z</time>
</trkpt>
<trkpt lat="33.280244" lon="131.430965">
 <ele>996.6</ele>
 <time>2024-03-02T05:41:28Z</time>
</trkpt>
<trkpt lat="33.280175" lon="131.431019">
 <ele>994.4</ele>
 <time>2024-03-02T05:41:28Z</time>
</trkpt>
<trkpt lat="33.280072" lon="131.431115">
 <ele>990.9</ele>
 <time>2024-03-02T05:41:28Z</time>
</trkpt>
<trkpt lat="33.279995" lon="131.431223">
 <ele>984.6</ele>
 <time>2024-03-02T05:41:28Z</time>
</trkpt>
<trkpt lat="33.279909" lon="131.431309">
 <ele>980.4</ele>
 <time>2024-03-02T05:41:28Z</time>
</trkpt>
<trkpt lat="33.279797" lon="131.431352">
 <ele>977.7</ele>
 <time>2024-03-02T05:41:28Z</time>
</trkpt>
<trkpt lat="33.279711" lon="131.431255">
 <ele>974</ele>
 <time>2024-03-02T05:41:28Z</time>
</trkpt>
<trkpt lat="33.279600" lon="131.431276">
 <ele>971.7</ele>
 <time>2024-03-02T05:41:28Z</time>
</trkpt>
<trkpt lat="33.279497" lon="131.431341">
 <ele>968.4</ele>
 <time>2024-03-02T05:41:28Z</time>
</trkpt>
<trkpt lat="33.279394" lon="131.431405">
 <ele>965</ele>
 <time>2024-03-02T05:41:28Z</time>
</trkpt>
<trkpt lat="33.279265" lon="131.431470">
 <ele>960.5</ele>
 <time>2024-03-02T05:41:28Z</time>
</trkpt>
<trkpt lat="33.279136" lon="131.431534">
 <ele>958.7</ele>
 <time>2024-03-02T05:41:28Z</time>
</trkpt>
<trkpt lat="33.278999" lon="131.431577">
 <ele>953.7</ele>
 <time>2024-03-02T05:41:28Z</time>
</trkpt>
<trkpt lat="33.278819" lon="131.431663">
 <ele>951.2</ele>
 <time>2024-03-02T05:41:28Z</time>
</trkpt>
<trkpt lat="33.278501" lon="131.431813">
 <ele>943.4</ele>
 <time>2024-03-02T05:41:28Z</time>
</trkpt>
<trkpt lat="33.278381" lon="131.431888">
 <ele>942</ele>
 <time>2024-03-02T05:41:28Z</time>
</trkpt>
<trkpt lat="33.278252" lon="131.431952">
 <ele>937.8</ele>
 <time>2024-03-02T05:41:28Z</time>
</trkpt>
<trkpt lat="33.278132" lon="131.432070">
 <ele>934.3</ele>
 <time>2024-03-02T05:41:28Z</time>
</trkpt>
<trkpt lat="33.278081" lon="131.432135">
 <ele>932.6</ele>
 <time>2024-03-02T05:41:28Z</time>
</trkpt>
<trkpt lat="33.277978" lon="131.432263">
 <ele>929.2</ele>
 <time>2024-03-02T05:41:29Z</time>
</trkpt>
<trkpt lat="33.277900" lon="131.432339">
 <ele>927.2</ele>
 <time>2024-03-02T05:41:29Z</time>
</trkpt>
<trkpt lat="33.277815" lon="131.432414">
 <ele>924.9</ele>
 <time>2024-03-02T05:41:29Z</time>
</trkpt>
<trkpt lat="33.277737" lon="131.432500">
 <ele>922.2</ele>
 <time>2024-03-02T05:41:29Z</time>
</trkpt>
<trkpt lat="33.277643" lon="131.432607">
 <ele>921.1</ele>
 <time>2024-03-02T05:41:29Z</time>
</trkpt>
<trkpt lat="33.277514" lon="131.432693">
 <ele>918.9</ele>
 <time>2024-03-02T05:41:29Z</time>
</trkpt>
<trkpt lat="33.277394" lon="131.432789">
 <ele>917.1</ele>
 <time>2024-03-02T05:41:29Z</time>
</trkpt>
<trkpt lat="33.277282" lon="131.432886">
 <ele>914</ele>
 <time>2024-03-02T05:41:29Z</time>
</trkpt>
<trkpt lat="33.277171" lon="131.432993">
 <ele>910.7</ele>
 <time>2024-03-02T05:41:29Z</time>
</trkpt>
<trkpt lat="33.277076" lon="131.433100">
 <ele>906.7</ele>
 <time>2024-03-02T05:41:29Z</time>
</trkpt>
<trkpt lat="33.277025" lon="131.433175">
 <ele>905.1</ele>
 <time>2024-03-02T05:41:29Z</time>
</trkpt>
<trkpt lat="33.276888" lon="131.433229">
 <ele>899.8</ele>
 <time>2024-03-02T05:41:29Z</time>
</trkpt>
<trkpt lat="33.276862" lon="131.433379">
 <ele>896.3</ele>
 <time>2024-03-02T05:41:29Z</time>
</trkpt>
<trkpt lat="33.276793" lon="131.433487">
 <ele>894.7</ele>
 <time>2024-03-02T05:41:29Z</time>
</trkpt>
<trkpt lat="33.276699" lon="131.433626">
 <ele>893.6</ele>
 <time>2024-03-02T05:41:29Z</time>
</trkpt>
<trkpt lat="33.276596" lon="131.433766">
 <ele>891.7</ele>
 <time>2024-03-02T05:41:29Z</time>
</trkpt>
<trkpt lat="33.276493" lon="131.433894">
 <ele>887.4</ele>
 <time>2024-03-02T05:41:29Z</time>
</trkpt>
<trkpt lat="33.276390" lon="131.434002">
 <ele>883</ele>
 <time>2024-03-02T05:41:29Z</time>
</trkpt>
<trkpt lat="33.276227" lon="131.434130">
 <ele>875.2</ele>
 <time>2024-03-02T05:41:30Z</time>
</trkpt>
<trkpt lat="33.276124" lon="131.434227">
 <ele>871.5</ele>
 <time>2024-03-02T05:41:30Z</time>
</trkpt>
<trkpt lat="33.275995" lon="131.434334">
 <ele>870</ele>
 <time>2024-03-02T05:41:30Z</time>
</trkpt>
<trkpt lat="33.275892" lon="131.434409">
 <ele>867.6</ele>
 <time>2024-03-02T05:41:30Z</time>
</trkpt>
<trkpt lat="33.275763" lon="131.434474">
 <ele>864.9</ele>
 <time>2024-03-02T05:41:30Z</time>
</trkpt>
<trkpt lat="33.275609" lon="131.434592">
 <ele>861.3</ele>
 <time>2024-03-02T05:41:30Z</time>
</trkpt>
<trkpt lat="33.275489" lon="131.434710">
 <ele>858.9</ele>
 <time>2024-03-02T05:41:30Z</time>
</trkpt>
<trkpt lat="33.275360" lon="131.434849">
 <ele>855.1</ele>
 <time>2024-03-02T05:41:30Z</time>
</trkpt>
<trkpt lat="33.275222" lon="131.434978">
 <ele>852.2</ele>
 <time>2024-03-02T05:41:30Z</time>
</trkpt>
<trkpt lat="33.275111" lon="131.435107">
 <ele>849.6</ele>
 <time>2024-03-02T05:41:30Z</time>
</trkpt>
<trkpt lat="33.275034" lon="131.435214">
 <ele>844.9</ele>
 <time>2024-03-02T05:41:30Z</time>
</trkpt>
<trkpt lat="33.274991" lon="131.435364">
 <ele>841.7</ele>
 <time>2024-03-02T05:41:30Z</time>
</trkpt>
<trkpt lat="33.274965" lon="131.435493">
 <ele>839.8</ele>
 <time>2024-03-02T05:41:30Z</time>
</trkpt>
<trkpt lat="33.274913" lon="131.435611">
 <ele>838</ele>
 <time>2024-03-02T05:41:30Z</time>
</trkpt>
<trkpt lat="33.274871" lon="131.435815">
 <ele>832.7</ele>
 <time>2024-03-02T05:41:30Z</time>
</trkpt>
<trkpt lat="33.274871" lon="131.435965">
 <ele>828.1</ele>
 <time>2024-03-02T05:41:30Z</time>
</trkpt>
<trkpt lat="33.274871" lon="131.436137">
 <ele>817.9</ele>
 <time>2024-03-02T05:41:30Z</time>
</trkpt>
<trkpt lat="33.274956" lon="131.436222">
 <ele>811.1</ele>
 <time>2024-03-02T05:41:30Z</time>
</trkpt>
<trkpt lat="33.275025" lon="131.436233">
 <ele>805.3</ele>
 <time>2024-03-02T05:41:30Z</time>
</trkpt>
<trkpt lat="33.275008" lon="131.436330">
 <ele>800.4</ele>
 <time>2024-03-02T05:41:30Z</time>
</trkpt>
<trkpt lat="33.274913" lon="131.436394">
 <ele>797.6</ele>
 <time>2024-03-02T05:41:30Z</time>
</trkpt>
<trkpt lat="33.274793" lon="131.436426">
 <ele>794</ele>
 <time>2024-03-02T05:41:30Z</time>
</trkpt>
<trkpt lat="33.274639" lon="131.436394">
 <ele>794.3</ele>
 <time>2024-03-02T05:41:30Z</time>
</trkpt>
<trkpt lat="33.274484" lon="131.436394">
 <ele>790.6</ele>
 <time>2024-03-02T05:41:30Z</time>
</trkpt>
<trkpt lat="33.274330" lon="131.436394">
 <ele>786.4</ele>
 <time>2024-03-02T05:41:30Z</time>
</trkpt>
<trkpt lat="33.274201" lon="131.436394">
 <ele>781.4</ele>
 <time>2024-03-02T05:41:30Z</time>
</trkpt>
<trkpt lat="33.274107" lon="131.436469">
 <ele>773.5</ele>
 <time>2024-03-02T05:41:31Z</time>
</trkpt>
<trkpt lat="33.274072" lon="131.436609">
 <ele>768.5</ele>
 <time>2024-03-02T05:41:31Z</time>
</trkpt>
<trkpt lat="33.274184" lon="131.436727">
 <ele>762.4</ele>
 <time>2024-03-02T05:41:31Z</time>
</trkpt>
<trkpt lat="33.274295" lon="131.436855">
 <ele>755.9</ele>
 <time>2024-03-02T05:41:31Z</time>
</trkpt>
<trkpt lat="33.274416" lon="131.437006">
 <ele>749.6</ele>
 <time>2024-03-02T05:41:31Z</time>
</trkpt>
<trkpt lat="33.274373" lon="131.437188">
 <ele>747.8</ele>
 <time>2024-03-02T05:41:31Z</time>
</trkpt>
<trkpt lat="33.274330" lon="131.437338">
 <ele>743.3</ele>
 <time>2024-03-02T05:41:31Z</time>
</trkpt>
<trkpt lat="33.274253" lon="131.437467">
 <ele>738.3</ele>
 <time>2024-03-02T05:41:31Z</time>
</trkpt>
<trkpt lat="33.274201" lon="131.437628">
 <ele>733</ele>
 <time>2024-03-02T05:41:31Z</time>
</trkpt>
<trkpt lat="33.274175" lon="131.437800">
 <ele>728.4</ele>
 <time>2024-03-02T05:41:31Z</time>
</trkpt>
<trkpt lat="33.274210" lon="131.437950">
 <ele>721.9</ele>
 <time>2024-03-02T05:41:31Z</time>
</trkpt>
<trkpt lat="33.274253" lon="131.438197">
 <ele>716.1</ele>
 <time>2024-03-02T05:41:31Z</time>
</trkpt>
<trkpt lat="33.274235" lon="131.438508">
 <ele>701.7</ele>
 <time>2024-03-02T05:41:31Z</time>
</trkpt>
<trkpt lat="33.274132" lon="131.438722">
 <ele>699.2</ele>
 <time>2024-03-02T05:41:31Z</time>
</trkpt>
<trkpt lat="33.274021" lon="131.438722">
 <ele>696.9</ele>
 <time>2024-03-02T05:41:31Z</time>
</trkpt>
<trkpt lat="33.273806" lon="131.438744">
 <ele>701.3</ele>
 <time>2024-03-02T05:41:31Z</time>
</trkpt>
<trkpt lat="33.273532" lon="131.438733">
 <ele>705.9</ele>
 <time>2024-03-02T05:41:31Z</time>
</trkpt>
<trkpt lat="33.273257" lon="131.438711">
 <ele>706.8</ele>
 <time>2024-03-02T05:41:31Z</time>
</trkpt>
<trkpt lat="33.273094" lon="131.438787">
 <ele>706.6</ele>
 <time>2024-03-02T05:41:31Z</time>
</trkpt>
<trkpt lat="33.272733" lon="131.439066">
 <ele>705</ele>
 <time>2024-03-02T05:41:31Z</time>
</trkpt>
</trkseg>
</trk>
</gpx>

